Lid_Strength_Index
0 -1 -2 -2 -2 -2 -2 -2 -2 -2 -2 -2 -2 -2 -2 -2 -2 -2 -2 -2 -2 -2 -2 -2 -2 -2 -2 -2 -2 -2 -2 -2 -2 -2 -2 -2 -2 -2 -2 -2 -2 -1 -2
-1 -1 -1 -2 -2 -2 -1 -2 -2 -2 -2 -2 -2 -2 -2 -2 -2 -2 -1 -2 -2 -2 -2 -2 -2 -2 -2 -2 -2 -2 -2 -2 -2 -2 -2 -3 -2 -2 -2 -2 -2 -2 -2
-0 -1 -1 -2 -2 -2 -2 -2 -2 -2 -2 -2 -2 -2 -2 -2 -2 -2 -2 -2 -2 -2 -2 -2 -2 -2 -2 -2 -2 -2 -2 -2 -2 -2 -2 -1 -2 -2 -2 -2 -2 -2 -2
-1 -1 -1 -1 -1 -2 -2 -2 -2 -2 -2 -2 -2 -2 -2 -2 -2 -1 -1 -1 -2 -2 -2 -2 -2 -2 -2 -2 -2 -2 -2 -2 -2 -2 -1 -1 -1 -2 -3 -3 -3 -2 -2
-1 -1 -1 -1 -2 -2 -2 -2 -2 -2 -2 -2 -2 -2 -2 -2 -2 -2 -2 -2 -2 -2 -2 -2 -2 -2 -2 -2 -2 -2 -2 -2 -2 -2 -1 -2 -2 -2 -3 -3 -2 -2 -2
-1 -1 -1 -1 -2 -2 -2 -1 -2 -2 -2 -2 -2 -2 -2 -2 -2 -2 -2 -2 -2 -2 -2 -2 -2 -2 -2 -2 -2 -2 -2 -2 -1 -1 -1 -2 -2 -3 -3 -3 -2 -2 -3
-0 -1 -1 -1 -1 -1 -1 -2 -2 -2 -2 -2 -2 -2 -2 -2 -2 -2 -2 -2 -2 -2 -3 -3 -3 -2 -1 -1 -2 -2 -1 -1 -0 -1 -1 -2 -2 -3 -3 -3 -3 -2 -3
-0 -1 -1 1 -0 -1 -1 -1 -2 -2 -2 -2 -2 -2 -2 -2 -2 -2 -2 -1 -1 -1 -2 -2 -2 -1 -0 0 -1 -1 -0 1 0 -1 -1 -1 -2 -2 -3 -2 -2 -2 -2
-1 -1 -1 -1 -0 0 -0 -0 -1 -1 -1 -2 -2 -2 -2 -2 -2 -2 -3 -2 -1 -1 -1 -1 -1 -0 1 1 0 0 0 1 0 -0 -1 -1 -2 -2 -3 -3 -3 -2 -2
1 -0 -1 -1 -1 -1 -1 1 0 -0 -1 -1 -1 -1 -1 -1 -2 -2 -1 -2 -2 -1 -1 -0 0 1 1 2 1 2 2 1 0 -0 -1 -1 -2 -2 -2 -2 -2 -2 -3
4 3 0 -0 -1 -1 -1 0 1 1 0 0 0 1 1 -2 -1 -1 -0 -1 -1 -0 0 1 1 2 2 3 2 3 3 2 1 -0 -1 -2 -2 -3 -3 -3 -2 -2 -2
6 5 3 2 0 -0 -1 -1 -1 -1 -1 -1 -1 -1 -1 -1 -1 -1 0 0 -0 -0 0 1 2 4 5 5 5 4 3 3 2 2 1 -1 -2 -3 -3 -2 -2 -2 -3
6 7 6 6 5 2 1 -1 -0 -0 -1 -1 -1 -1 -1 -1 -1 -1 0 1 2 3 3 3 3 4 5 5 5 5 4 4 4 4 2 -0 -1 -2 -2 -2 -1 -1 -1
8 7 7 6 6 5 5 2 -0 -0 -1 -1 -1 -1 -1 -0 -0 0 0 1 2 2 3 2 3 4 5 5 5 6 6 5 5 5 4 2 1 0 -0 -1 -1 -1 -0
9 8 7 6 5 6 5 4 1 -1 -0 -1 -1 -1 -1 -0 -0 1 0 1 2 3 3 3 4 4 5 6 8 8 8 8 8 8 6 4 3 2 1 0 -0 0 0
9 9 8 7 6 6 5 3 1 0 1 0 -0 -0 -0 -0 1 1 1 3 3 3 3 3 4 5 7 8 9 10 11 11 11 11 10 8 5 4 3 1 1 1 1
9 9 8 7 6 6 6 3 2 1 1 2 2 1 1 1 1 2 2 4 4 4 4 4 5 7 8 10 10 11 12 12 12 12 12 12 10 6 5 4 3 3 3
8 7 6 5 4 3 3 1 2 3 2 3 4 2 2 2 2 3 3 4 5 5 5 5 6 8 10 11 12 13 13 12 13 13 13 13 12 11 8 7 6 5 4
8 7 7 5 4 3 2 3 2 3 4 4 4 4 4 4 3 4 4 5 6 6 6 6 7 9 12 13 13 13 13 13 13 13 14 13 13 13 13 10 9 8 6
9 8 7 6 4 4 4 5 5 6 7 6 6 6 6 5 5 5 6 7 7 8 8 8 9 10 12 13 14 14 14 14 14 14 14 14 14 14 14 14 14 12 9
9 8 8 6 5 5 5 6 6 7 8 8 8 8 7 7 7 6 6 8 9 8 8 9 9 12 13 13 14 14 14 14 14 15 14 14 14 15 15 15 14 14 14
9 8 8 6 6 5 4 6 7 8 10 10 10 10 9 9 8 8 9 10 10 10 9 9 10 12 13 12 12 12 15 14 15 15 15 15 15 14 15 15 16 16 15
10 9 8 7 6 6 5 9 10 10 10 11 11 11 12 10 9 9 11 12 10 8 9 9 10 11 13 13 12 10 13 12 13 14 16 16 16 15 15 16 16 16 16
10 9 8 7 7 6 9 8 9 8 9 10 10 11 12 11 11 11 13 12 10 9 10 10 11 11 12 13 15 15 14 12 14 17 16 16 16 16 16 16 17 17 16
10 9 8 7 7 8 9 8 8 9 10 11 12 12 13 13 13 13 14 13 12 11 11 12 13 13 12 13 14 15 15 16 16 16 18 18 17 16 16 16 16 17 17
11 9 8 8 7 9 9 9 8 9 13 13 13 14 14 14 15 15 15 15 14 13 13 13 14 14 14 14 15 15 15 15 17 17 18 18 17 17 16 16 16 17 16